Location: Goettingen
(51.5300°N, 9.9433°E)
Time: 11:06:05
(UTC+02:00)

ISS - Pass Details

Date: 24 May 2019
Orbit: 407 x 410 km, 51.6° (Epoch: 21 May)

Event Time Altitude Azimuth Distance (km) Brightness Sun altitude
Rises 01:02:45 0° 283° (WNW) 2,337 0.3 -17.7°
Reaches altitude 10° 01:04:52 10° 278° (W) 1,475 -0.9 -17.8°
Enters shadow 01:07:41 48° 230° (SW) 548 -3.5 -17.8°
